User: anonymous   Login
Location: Ward Pound Ridge Reservation
(41.2500°N, 73.6000°W)
Time: 19:57:05
(UTC-05:00)
Language:

ISS - Orbit

View from above orbital plane
View from above orbital plane
View from above satellite
View from above satellite

Ground track
Ground track

The orbit data is extracted from the following two-line orbital elements,

1 25544U 98067A   18351.16490984  .00016717  00000-0  10270-3 0  9051
2 25544  51.6363 186.8593 0004877 153.9098 206.2301 15.54087695 26964
Epoch (UTC): 17 December 2018 03:57:28
Eccentricity: 0.0004877
inclination: 51.6363°
perigee height: 401 km
apogee height: 408 km
right ascension of ascending node: 186.8593°
argument of perigee: 153.9098°
revolutions per day: 15.54087695
mean anomaly at epoch: 206.2301°
orbit number at epoch: 2696

The dashed part of the orbit path shows where the satellite is in the earth's shadow,  

DLR